TimeMST,TemperatureF,Dew PointF,Humidity,Sea Level PressureIn,VisibilityMPH,Wind Direction,Wind SpeedMPH,Gust SpeedMPH,PrecipitationIn,Events,Conditions,WindDirDegrees,DateUTC
12:15 AM,17.6,12.2,79,30.24,10.0,West,9.2,-,N/A,,Clear,270,2013-12-25 07:15:00
12:35 AM,17.6,12.2,79,30.24,10.0,West,11.5,-,N/A,,Clear,280,2013-12-25 07:35:00
12:55 AM,19.4,12.2,74,30.25,10.0,West,10.4,-,N/A,,Clear,280,2013-12-25 07:55:00
1:15 AM,21.2,14.0,74,30.26,10.0,West,9.2,-,N/A,,Clear,270,2013-12-25 08:15:00
1:35 AM,23.0,14.0,68,30.27,10.0,West,11.5,17.3,N/A,,Clear,280,2013-12-25 08:35:00
1:55 AM,23.0,14.0,68,30.27,10.0,West,13.8,19.6,N/A,,Clear,280,2013-12-25 08:55:00
2:15 AM,23.0,14.0,68,30.28,10.0,WNW,13.8,-,N/A,,Clear,290,2013-12-25 09:15:00
2:35 AM,23.0,14.0,68,30.29,10.0,WNW,9.2,-,N/A,,Clear,300,2013-12-25 09:35:00
2:55 AM,26.6,12.2,55,30.29,10.0,WNW,15.0,-,N/A,,Clear,300,2013-12-25 09:55:00
3:15 AM,26.6,14.0,59,30.28,10.0,WNW,17.3,25.3,N/A,,Clear,300,2013-12-25 10:15:00
3:35 AM,24.8,14.0,64,30.29,10.0,NW,23.0,28.8,N/A,,Clear,310,2013-12-25 10:35:00
3:55 AM,26.6,14.0,59,30.31,10.0,WNW,16.1,-,N/A,,Clear,300,2013-12-25 10:55:00
4:15 AM,26.6,14.0,59,30.31,10.0,WNW,17.3,23.0,N/A,,Clear,300,2013-12-25 11:15:00
4:35 AM,24.8,14.0,64,30.31,10.0,WNW,16.1,23.0,N/A,,Clear,300,2013-12-25 11:35:00
4:55 AM,24.8,14.0,64,30.31,10.0,WNW,17.3,23.0,N/A,,Clear,300,2013-12-25 11:55:00
5:15 AM,24.8,14.0,64,30.32,10.0,WNW,17.3,-,N/A,,Clear,300,2013-12-25 12:15:00
5:35 AM,23.0,14.0,68,30.33,10.0,WNW,12.7,-,N/A,,Clear,300,2013-12-25 12:35:00
5:55 AM,23.0,12.2,63,30.33,10.0,WNW,15.0,-,N/A,,Clear,300,2013-12-25 12:55:00
6:15 AM,21.2,12.2,68,30.33,10.0,WNW,10.4,-,N/A,,Clear,290,2013-12-25 13:15:00
6:35 AM,21.2,12.2,68,30.33,10.0,WNW,10.4,-,N/A,,Clear,290,2013-12-25 13:35:00
6:55 AM,21.2,12.2,68,30.34,10.0,WNW,11.5,-,N/A,,Clear,290,2013-12-25 13:55:00
7:15 AM,21.2,12.2,68,30.34,10.0,WNW,12.7,-,N/A,,Clear,290,2013-12-25 14:15:00
7:35 AM,21.2,12.2,68,30.35,10.0,WNW,11.5,-,N/A,,Clear,290,2013-12-25 14:35:00
7:55 AM,21.2,12.2,68,30.35,10.0,West,8.1,-,N/A,,Clear,280,2013-12-25 14:55:00
8:15 AM,23.0,12.2,63,30.35,10.0,West,8.1,-,N/A,,Clear,270,2013-12-25 15:15:00
8:35 AM,23.0,14.0,68,30.35,10.0,West,8.1,-,N/A,,Clear,270,2013-12-25 15:35:00
8:55 AM,26.6,12.2,55,30.36,10.0,West,10.4,-,N/A,,Clear,280,2013-12-25 15:55:00
9:15 AM,28.4,12.2,51,30.36,10.0,WNW,13.8,-,N/A,,Clear,290,2013-12-25 16:15:00
9:35 AM,30.2,12.2,47,30.36,10.0,WNW,15.0,-,N/A,,Clear,290,2013-12-25 16:35:00
9:55 AM,32.0,12.2,44,30.37,10.0,WNW,17.3,21.9,N/A,,Clear,290,2013-12-25 16:55:00
10:15 AM,32.0,12.2,44,30.37,10.0,WNW,18.4,21.9,N/A,,Clear,300,2013-12-25 17:15:00
10:35 AM,33.8,12.2,41,30.37,10.0,NW,21.9,-,N/A,,Clear,310,2013-12-25 17:35:00
10:55 AM,33.8,12.2,41,30.36,10.0,WNW,18.4,-,N/A,,Clear,300,2013-12-25 17:55:00
11:15 AM,35.6,10.4,35,30.35,10.0,NW,18.4,24.2,N/A,,Clear,310,2013-12-25 18:15:00
11:35 AM,35.6,12.2,38,30.34,10.0,NW,15.0,-,N/A,,Clear,320,2013-12-25 18:35:00
11:55 AM,35.6,12.2,38,30.34,10.0,NW,16.1,19.6,N/A,,Clear,320,2013-12-25 18:55:00
12:15 PM,35.6,12.2,38,30.33,10.0,NNW,15.0,19.6,N/A,,Clear,330,2013-12-25 19:15:00
12:35 PM,35.6,12.2,38,30.31,10.0,NNW,13.8,18.4,N/A,,Clear,330,2013-12-25 19:35:00
12:55 PM,37.4,10.4,33,30.30,10.0,NW,17.3,21.9,N/A,,Clear,310,2013-12-25 19:55:00
1:15 PM,37.4,10.4,33,30.29,10.0,NW,18.4,21.9,N/A,,Clear,320,2013-12-25 20:15:00
1:35 PM,37.4,10.4,33,30.28,10.0,NW,17.3,-,N/A,,Clear,320,2013-12-25 20:35:00
1:55 PM,37.4,10.4,33,30.27,10.0,NW,15.0,18.4,N/A,,Clear,320,2013-12-25 20:55:00
2:15 PM,37.4,12.2,36,30.27,10.0,NW,13.8,-,N/A,,Clear,320,2013-12-25 21:15:00
2:35 PM,37.4,12.2,36,30.27,10.0,NW,12.7,-,N/A,,Clear,320,2013-12-25 21:35:00
2:55 PM,37.4,12.2,36,30.27,10.0,WNW,9.2,-,N/A,,Clear,290,2013-12-25 21:55:00
3:15 PM,37.4,12.2,36,30.27,10.0,West,6.9,-,N/A,,Clear,280,2013-12-25 22:15:00
3:35 PM,37.4,14.0,38,30.27,10.0,SW,4.6,-,N/A,,Clear,230,2013-12-25 22:35:00
3:55 PM,35.6,15.8,44,30.26,10.0,SSW,8.1,-,N/A,,Clear,210,2013-12-25 22:55:00
4:15 PM,32.0,15.8,51,30.26,10.0,SSW,6.9,-,N/A,,Clear,200,2013-12-25 23:15:00
4:35 PM,30.2,17.6,60,30.25,10.0,SSW,8.1,-,N/A,,Clear,210,2013-12-25 23:35:00
4:55 PM,28.4,17.6,64,30.25,10.0,SW,8.1,-,N/A,,Clear,220,2013-12-25 23:55:00
5:15 PM,30.2,17.6,60,30.25,10.0,SW,10.4,-,N/A,,Clear,220,2013-12-26 00:15:00
5:35 PM,28.4,19.4,69,30.24,10.0,SSW,8.1,-,N/A,,Clear,200,2013-12-26 00:35:00
5:55 PM,26.6,19.4,74,30.24,10.0,SSW,4.6,-,N/A,,Clear,210,2013-12-26 00:55:00
6:15 PM,28.4,19.4,69,30.23,10.0,WSW,9.2,-,N/A,,Clear,240,2013-12-26 01:15:00
6:35 PM,28.4,19.4,69,30.23,10.0,SW,11.5,-,N/A,,Clear,230,2013-12-26 01:35:00
6:55 PM,28.4,19.4,69,30.23,10.0,West,8.1,-,N/A,,Clear,260,2013-12-26 01:55:00
7:15 PM,26.6,19.4,74,30.23,10.0,West,6.9,-,N/A,,Clear,260,2013-12-26 02:15:00
7:35 PM,26.6,19.4,74,30.22,10.0,SW,10.4,-,N/A,,Clear,230,2013-12-26 02:35:00
7:55 PM,28.4,17.6,64,30.21,10.0,SW,12.7,-,N/A,,Clear,230,2013-12-26 02:55:00
8:15 PM,28.4,17.6,64,30.20,10.0,SW,13.8,-,N/A,,Clear,220,2013-12-26 03:15:00
8:35 PM,26.6,17.6,69,30.20,10.0,West,4.6,-,N/A,,Clear,260,2013-12-26 03:35:00
8:55 PM,24.8,17.6,74,30.19,10.0,West,5.8,-,N/A,,Clear,260,2013-12-26 03:55:00
9:15 PM,23.0,15.8,74,30.19,10.0,Calm,Calm,-,N/A,,Clear,0,2013-12-26 04:15:00
9:35 PM,23.0,15.8,74,30.19,10.0,WSW,5.8,-,N/A,,Clear,250,2013-12-26 04:35:00
9:55 PM,21.2,14.0,74,30.18,10.0,Calm,Calm,-,N/A,,Clear,0,2013-12-26 04:55:00
10:15 PM,23.0,14.0,68,30.18,10.0,West,3.5,-,N/A,,Clear,260,2013-12-26 05:15:00
10:35 PM,23.0,14.0,68,30.18,10.0,SSW,6.9,-,N/A,,Clear,200,2013-12-26 05:35:00
10:55 PM,21.2,14.0,74,30.18,10.0,SW,4.6,-,N/A,,Clear,230,2013-12-26 05:55:00
11:15 PM,21.2,14.0,74,30.17,10.0,Calm,Calm,-,N/A,,Clear,0,2013-12-26 06:15:00
11:35 PM,21.2,14.0,74,30.17,10.0,South,5.8,-,N/A,,Clear,190,2013-12-26 06:35:00
11:55 PM,21.2,14.0,74,30.17,10.0,South,5.8,-,N/A,,Clear,190,2013-12-26 06:55:00